Location: Ettringen
(48.1054°N, 10.6545°E)
Time: 02:16:10
(UTC+00:00)

CZ-2D R/B - Pass Details

Date: 18 November 2025
Orbit: 526 x 597 km, 98.0° (Epoch: 04 December)

Event Time Altitude Azimuth Distance (km) Brightness Sun altitude
Rises 17:44:01 0° 175° (S) 2,786 6.9 -21.1°
Reaches altitude 10° 17:46:10 10° 179° (S) 1,901 6.1 -21.5°
Maximum altitude 17:50:15 58° 259° (W) 694 4.0 -22.2°
Drops below altitude 10° 17:54:25 10° 339° (NNW) 1,944 6.3 -22.9°
Sets 17:56:38 0° 343° (NNW) 2,855 7.1 -23.2°
